Flag for Spain Weather for the Past 2 Weeks in Santa Cruz de Tenerife, Canary Islands, Spain

Now
54 °F

Passing clouds.


Feels Like: 50 °F
Forecast: 65 / 73 °F
Wind: 10 mph from Northwest

Location: Tenerife / Los Rodeos

Current Time: May 3, 2016 at 8:52:24 AM

Latest Report: May 3, 2016 at 8:00 AM


Visibility: 6 mi

Pressure: 30.01 "Hg

Humidity: 94%

Dew Point: 52 °F

Location of Santa Cruz de TenerifeLocation

Historic Weather in Santa Cruz de Tenerife — Graph

°F

Santa Cruz de Tenerife Temperature Yesterday

Maximum temperature yesterday: 64 °F (at 1:30 PM)
Minimum temperature yesterday: 55 °F (at 6:00 AM)
Average temperature yesterday: 59 °F

High & Low Weather Summary for the Past Weeks

 TemperatureHumidityPressure
High68 °F (Apr 22, 12:00 PM)100% (Apr 18, 7:30 AM)30.18 "Hg (Apr 18, 7:30 AM)
Low48 °F (Apr 20, 6:30 AM)63% (Apr 27, 12:00 PM)29.92 "Hg (Apr 18, 7:30 AM)
Average59 °F85%30.07 "Hg
* Reported Apr 18 7:30 AM — May 3 7:30 AM, Santa Cruz de Tenerife, Weather by CustomWeather, © 2016

Note: Actual official high and low records may vary slightly from our data, if they occured in-between our weather recording intervals... More about our weather records

Advertising

Santa Cruz de Tenerife Weather History for the Previous 24 Hours

Scroll right to see more
 ConditionsComfort  
Time TempWeatherWind HumidityBarometerVisibility
7:30 AM
Tue, May 3
52 °FPassing clouds.8 mph94%30.01 "Hg6 mi
7:00 AM52 °FPassing clouds.10 mph94%30.01 "Hg6 mi
6:30 AM54 °FPassing clouds.10 mph88%29.98 "Hg6 mi
6:00 AM54 °FPassing clouds.12 mph88%29.98 "Hg6 mi
11:00 PM
Mon, May 2
55 °FPassing clouds.16 mph100%30.07 "Hg6 mi
10:30 PM55 °FPassing clouds.17 mph94%30.07 "Hg6 mi
10:00 PM55 °FPassing clouds.17 mph94%30.07 "Hg6 mi
9:30 PM55 °FPartly sunny.17 mph100%30.04 "Hg6 mi
9:00 PM57 °FPartly sunny.18 mph88%30.04 "HgN/A
8:30 PM57 °FScattered clouds.18 mph88%30.04 "HgN/A
8:00 PM57 °FScattered clouds.18 mph88%30.04 "HgN/A
7:30 PM59 °FScattered clouds.21 mph82%30.04 "HgN/A
7:00 PM59 °FScattered clouds.22 mph88%30.04 "HgN/A
6:30 PM61 °FPartly sunny.21 mph77%30.01 "HgN/A
6:00 PM61 °FPartly sunny.20 mph83%30.04 "HgN/A
5:30 PM63 °FScattered clouds.22 mph73%30.04 "HgN/A
5:00 PM63 °FScattered clouds.20 mph73%30.04 "HgN/A
4:30 PM64 °FScattered clouds.18 mph73%30.04 "HgN/A
4:00 PM64 °FScattered clouds.16 mph68%30.04 "HgN/A
3:30 PM64 °FScattered clouds.15 mph68%30.07 "HgN/A
3:00 PM64 °FScattered clouds.17 mph73%30.07 "HgN/A
2:30 PM64 °FScattered clouds.16 mph73%30.07 "HgN/A
2:00 PM63 °FScattered clouds.15 mph77%30.07 "HgN/A
1:30 PM64 °FPartly sunny.14 mph68%30.09 "HgN/A
1:00 PM61 °FPartly sunny.16 mph83%30.09 "HgN/A
12:30 PM61 °FPartly sunny.14 mph83%30.09 "HgN/A
12:00 PM61 °FPartly sunny.15 mph83%30.09 "HgN/A
11:30 AM61 °FFog.16 mph83%30.09 "Hg6 mi
11:00 AM59 °FPartly sunny.14 mph88%30.07 "Hg6 mi
10:30 AM57 °FPartly sunny.16 mph94%30.07 "Hg6 mi
10:00 AM57 °FPartly sunny.17 mph88%30.07 "HgN/A
9:30 AM57 °FPartly sunny.17 mph94%30.07 "Hg4 mi
9:00 AM55 °FFog.20 mph100%30.07 "Hg5 mi
8:30 AM55 °FDrizzle. Fog.21 mph100%30.04 "Hg4 mi
8:00 AM55 °FPassing clouds.18 mph94%30.04 "Hg4 mi
Weather by CustomWeather, © 2016

See weather overviewHow to use our weather pages